Content
SEND FEEDBACK

Daily
Averages
Monthly
Summary
United States of America

WILLOW SPRINGS, MISSOURI


Home > North America > United States > Missouri
Elevation: 1274 feet     Latitude: 36 58N     Longitude: 091 58W

WEATHER
 
SELECT A DAY
Number of Records: 190,584;   Date Range: 8/15/96 - 9/20/14
 
SHARE

PRINT THIS DATA

[ ← Previous Day ]
WEATHER ALMANAC - JANUARY 9, 2013
[ Next Day → ]
[ °C ]   °F
Weather ElementAverageHighLow
Temperature46.7 °F55 °F (1:53 pm)39.2 °F (6:35 am)
Dewpoint39.1 °F44.1 °F (9:53 am)32 °F (9:53 pm)
Humidity76.9 %93 % (2:53 am)49 % (1:53 pm)
Barometer30.34 in30.40 in (8:53 am)30.25 in (2:53 am)
Wind Speed5.9 mph12.7 mph (8:53 pm)
Wind Gust23 mph (11:53 pm)
Weather ElementAverage
Visibility6.7 mi
Wind DirectionNE (49.1 °)

Weather ElementTotal
Precipitation---
Heating Degree Days17.9 (Base 65)
Averaged from 34 records on January 9, 2013
WEATHER CONDITIONS BREAKOUT
WIND DIRECTION BREAKOUT
WEATHER BY HOUR - JANUARY 9, 2013
[ °C ]   °F
Local TimeTemperatureDewpointHumidityBarometerVisibilityWind DirectionWind SpeedGust SpeedPrecipitationEventsConditions
1:53 AM45.0 °F41.0 °F86 %30.26 in7.0 miCalm0.00 inOvercast
2:53 AM44.1 °F42.1 °F93 %30.25 in6.0 miCalmOvercast
3:53 AM45.0 °F42.1 °F90 %30.26 in4.0 miNNW (340°)4.6 mphOvercast
4:41 AM44.6 °F41.0 °F87 %30.25 in7.0 miNorth (10°)3.5 mphOvercast
4:53 AM44.1 °F41.0 °F89 %30.26 in7.0 miCalmOvercast
5:25 AM44.6 °F41.0 °F87 %30.27 in6.0 miNNE (20°)3.5 mphMostly Cloudy
5:34 AM42.8 °F39.2 °F87 %30.28 in5.0 miNNE (30°)3.5 mphMostly Cloudy
5:53 AM43.0 °F41.0 °F93 %30.29 in6.0 miNNE (20°)3.5 mphOvercast
6:10 AM42.8 °F39.2 °F87 %30.29 in6.0 miCalmScattered Clouds
6:35 AM39.2 °F37.4 °F93 %30.30 in1.5 miCalmClear
6:50 AM41.0 °F39.2 °F93 %30.31 in3.0 miESE (120°)3.5 mphClear
6:53 AM42.1 °F39.9 °F92 %30.32 in4.0 miESE (110°)3.5 mphClear
7:27 AM41.0 °F37.4 °F87 %30.34 in2.0 miCalmClear
7:53 AM42.1 °F39.9 °F92 %30.37 in2.0 miNE (50°)3.5 mphClear
8:01 AM41.0 °F39.2 °F93 %30.36 in1.8 miENE (70°)3.5 mphPartly Cloudy
8:33 AM42.8 °F41.0 °F93 %30.38 in2.5 miNE (40°)3.5 mphClear
8:42 AM44.6 °F42.8 °F93 %30.38 in3.0 miNNE (30°)3.5 mphClear
8:53 AM45.0 °F43.0 °F93 %30.40 in3.0 miNorth (10°)4.6 mphClear
9:38 AM46.4 °F42.8 °F87 %30.38 in6.0 miNE (50°)9.2 mphPartly Cloudy
9:53 AM46.9 °F44.1 °F90 %30.38 in6.0 miNNE (20°)8.1 mphScattered Clouds
10:53 AM50.0 °F42.1 °F74 %30.39 in10.0 miNNE (20°)10.4 mphClear
11:53 AM52.0 °F41.0 °F66 %30.37 in10.0 miNE (40°)8.1 mphClear
12:53 PM54.0 °F39.9 °F59 %30.36 in10.0 miENE (60°)9.2 mphClear
1:53 PM55.0 °F36.0 °F49 %30.34 in10.0 miNE (50°)11.5 mphClear
2:53 PM55.0 °F37.0 °F51 %30.35 in10.0 miNE (50°)9.2 mphClear
3:53 PM53.1 °F39.0 °F59 %30.35 in10.0 miNE (50°)8.1 mphClear
4:53 PM51.1 °F39.0 °F63 %30.36 in10.0 miNE (40°)6.9 mphClear
5:53 PM50.0 °F37.9 °F63 %30.36 in10.0 miNE (50°)8.1 mphClear
6:53 PM51.1 °F37.0 °F59 %30.37 in10.0 miENE (60°)8.1 mphClear
7:53 PM50.0 °F36.0 °F59 %30.38 in10.0 miENE (60°)8.1 mphClear
8:53 PM51.1 °F34.0 °F52 %30.38 in10.0 miENE (60°)12.7 mphClear
9:53 PM50.0 °F32.0 °F50 %30.37 in10.0 miENE (70°)12.7 mphClear
10:53 PM50.0 °F32.0 °F50 %30.36 in10.0 miENE (70°)12.7 mphOvercast
11:53 PM48.0 °F32.0 °F54 %30.35 in10.0 miENE (70°)12.7 mph23.0 mphOvercast
Hourly data recorded from KUNO, located miles away from Willow Springs, Missouri







STORIES FROM OUR PARTNERS